• In Uzbekistan
  • List of Countries
  • For 7 days
  • Water Temperature
  • Satellite Maps
  • Weather Map
  • Weather Widgets
  • user-avatar
    Login

    Hourly Weather Lankaran

    Today, 20 January, Saturday

    Time Temperature Precipitation Wind Pressure Humidity
    00:00 +1°C° 0 mm 2 mps 627 mmHg 59%
    01:00 +1°C° 0.1 mm 2 mps 627 mmHg 62%
    02:00 +1°C° 0.1 mm 2 mps 628 mmHg 66%
    03:00 -1°C° 0.1 mm 3 mps 628 mmHg 69%
    04:00 -1°C° 0.2 mm 2 mps 629 mmHg 72%
    05:00 -1°C° 0.2 mm 2 mps 629 mmHg 76%
    06:00 -1°C° 0.2 mm 2 mps 629 mmHg 79%
    07:00 -1°C° 0.2 mm 2 mps 630 mmHg 80%
    08:00 -1°C° 0.2 mm 2 mps 630 mmHg 81%
    09:00 -1°C° 0.2 mm 2 mps 631 mmHg 82%
    10:00 +1°C° 0.3 mm 2 mps 631 mmHg 82%
    11:00 +1°C° 0.3 mm 2 mps 632 mmHg 81%
    12:00 +1°C° 0.3 mm 2 mps 632 mmHg 80%
    13:00 +1°C° 0.4 mm 2 mps 633 mmHg 80%
    14:00 +1°C° 0.4 mm 2 mps 633 mmHg 80%
    15:00 +2°C° 0.4 mm 1 mps 633 mmHg 81%
    16:00 +1°C° 0.3 mm 1 mps 633 mmHg 82%
    17:00 -1°C° 0.3 mm 2 mps 634 mmHg 83%
    18:00 -2°C° 0.3 mm 2 mps 634 mmHg 84%
    19:00 -2°C° 0.1 mm 2 mps 634 mmHg 82%
    20:00 -2°C° 0.1 mm 2 mps 634 mmHg 79%
    21:00 -2°C° 0.1 mm 2 mps 634 mmHg 77%
    22:00 -4°C° 0 mm 3 mps 634 mmHg 73%
    23:00 -4°C° 0 mm 3 mps 634 mmHg 70%

    Tomorrow, 21 January, Sunday

    Time Temperature Precipitation Wind Pressure Humidity
    00:00 -4°C° 0 mm 3 mps 634 mmHg 66%
    01:00 -4°C° 0 mm 3 mps 634 mmHg 65%
    02:00 -4°C° 0 mm 3 mps 634 mmHg 64%
    03:00 -4°C° 0 mm 3 mps 634 mmHg 63%
    04:00 -4°C° 0 mm 3 mps 634 mmHg 63%
    05:00 -4°C° 0 mm 3 mps 634 mmHg 64%
    06:00 -4°C° 0 mm 3 mps 634 mmHg 64%
    07:00 -2°C° 0 mm 3 mps 634 mmHg 62%
    08:00 -1°C° 0 mm 3 mps 635 mmHg 60%
    09:00 +1°C° 0 mm 3 mps 635 mmHg 57%
    10:00 +2°C° 0 mm 3 mps 635 mmHg 54%
    11:00 +3°C° 0 mm 3 mps 635 mmHg 51%
    12:00 +5°C° 0 mm 4 mps 635 mmHg 49%
    13:00 +5°C° 0 mm 4 mps 634 mmHg 48%
    14:00 +5°C° 0 mm 4 mps 634 mmHg 47%
    15:00 +5°C° 0 mm 4 mps 634 mmHg 47%
    16:00 +4°C° 0 mm 3 mps 633 mmHg 49%
    17:00 +2°C° 0 mm 3 mps 633 mmHg 50%
    18:00 +1°C° 0 mm 3 mps 633 mmHg 52%
    19:00 0°C° 0 mm 3 mps 633 mmHg 49%
    20:00 0°C° 0 mm 3 mps 633 mmHg 47%
    21:00 0°C° 0 mm 3 mps 633 mmHg 45%
    22:00 0°C° 0 mm 3 mps 633 mmHg 44%
    23:00 +1°C° 0 mm 2 mps 633 mmHg 44%

    Day after tomorrow, 22 January, Monday

    Time Temperature Precipitation Wind Pressure Humidity
    00:00 +1°C° 0 mm 2 mps 633 mmHg 43%
    01:00 +1°C° 0 mm 2 mps 632 mmHg 43%
    02:00 +1°C° 0 mm 2 mps 632 mmHg 42%
    03:00 +1°C° 0 mm 2 mps 632 mmHg 41%
    04:00 +1°C° 0 mm 2 mps 632 mmHg 41%
    05:00 +1°C° 0 mm 2 mps 632 mmHg 40%
    06:00 +1°C° 0 mm 2 mps 631 mmHg 39%
    07:00 +2°C° 0 mm 2 mps 632 mmHg 39%
    08:00 +3°C° 0 mm 2 mps 632 mmHg 39%
    09:00 +5°C° 0 mm 2 mps 632 mmHg 40%
    10:00 +5°C° 0 mm 3 mps 631 mmHg 39%
    11:00 +7°C° 0 mm 3 mps 631 mmHg 39%
    12:00 +8°C° 0 mm 3 mps 631 mmHg 38%
    13:00 +8°C° 0 mm 3 mps 630 mmHg 39%
    14:00 +8°C° 0 mm 3 mps 630 mmHg 39%
    15:00 +8°C° 0 mm 3 mps 629 mmHg 39%
    16:00 +7°C° 0 mm 3 mps 629 mmHg 39%
    17:00 +4°C° 0 mm 3 mps 629 mmHg 39%
    18:00 +3°C° 0 mm 3 mps 628 mmHg 39%
    19:00 +3°C° 0 mm 3 mps 628 mmHg 37%
    20:00 +2°C° 0 mm 3 mps 628 mmHg 35%
    21:00 +2°C° 0 mm 3 mps 628 mmHg 33%
    22:00 +1°C° 0 mm 4 mps 627 mmHg 33%
    23:00 0°C° 0 mm 4 mps 627 mmHg 33%

    23 January, Tuesday

    Time Temperature Precipitation Wind Pressure Humidity
    00:00 0°C° 0 mm 4 mps 627 mmHg 32%
    01:00 0°C° 0 mm 4 mps 627 mmHg 33%
    02:00 0°C° 0 mm 4 mps 627 mmHg 33%
    03:00 0°C° 0 mm 4 mps 627 mmHg 33%
    04:00 -1°C° 0 mm 4 mps 627 mmHg 34%
    05:00 -1°C° 0 mm 4 mps 627 mmHg 35%
    06:00 -1°C° 0 mm 4 mps 627 mmHg 36%
    07:00 +1°C° 0 mm 3 mps 627 mmHg 35%
    08:00 +2°C° 0 mm 3 mps 627 mmHg 35%
    09:00 +3°C° 0 mm 3 mps 628 mmHg 35%
    10:00 +5°C° 0 mm 4 mps 628 mmHg 34%
    11:00 +6°C° 0 mm 4 mps 628 mmHg 33%
    12:00 +7°C° 0 mm 5 mps 628 mmHg 32%
    13:00 +7°C° 0 mm 5 mps 628 mmHg 33%
    14:00 +7°C° 0 mm 4 mps 628 mmHg 33%
    15:00 +7°C° 0 mm 4 mps 627 mmHg 34%
    16:00 +5°C° 0 mm 4 mps 627 mmHg 37%
    17:00 +4°C° 0 mm 3 mps 627 mmHg 40%
    18:00 +2°C° 0 mm 3 mps 627 mmHg 43%
    19:00 +3°C° 0 mm 2 mps 627 mmHg 44%
    20:00 +3°C° 0 mm 2 mps 627 mmHg 44%
    21:00 +3°C° 0 mm 2 mps 627 mmHg 44%
    22:00 +2°C° 0 mm 2 mps 627 mmHg 47%
    23:00 +2°C° 0 mm 2 mps 627 mmHg 49%

    24 January, Wednesday

    Time Temperature Precipitation Wind Pressure Humidity
    00:00 +2°C° 0 mm 2 mps 627 mmHg 51%
    01:00 +2°C° 0 mm 2 mps 627 mmHg 54%
    02:00 +2°C° 0 mm 2 mps 628 mmHg 56%
    03:00 +1°C° 0 mm 3 mps 628 mmHg 59%
    04:00 +1°C° 0 mm 3 mps 628 mmHg 61%
    05:00 0°C° 0 mm 3 mps 628 mmHg 63%
    06:00 0°C° 0 mm 3 mps 628 mmHg 65%
    07:00 +1°C° 0 mm 3 mps 629 mmHg 64%
    08:00 +1°C° 0 mm 3 mps 629 mmHg 63%
    09:00 +2°C° 0 mm 3 mps 630 mmHg 62%
    10:00 +2°C° 0 mm 3 mps 630 mmHg 61%
    11:00 +3°C° 0 mm 3 mps 630 mmHg 60%
    12:00 +4°C° 0 mm 4 mps 630 mmHg 59%
    13:00 +4°C° 0 mm 4 mps 630 mmHg 59%
    14:00 +4°C° 0 mm 4 mps 630 mmHg 59%
    15:00 +4°C° 0 mm 4 mps 630 mmHg 60%
    16:00 +3°C° 0.1 mm 3 mps 630 mmHg 66%
    17:00 +2°C° 0.1 mm 3 mps 630 mmHg 72%
    18:00 +1°C° 0.1 mm 3 mps 631 mmHg 78%
    19:00 0°C° 0.1 mm 3 mps 631 mmHg 81%
    20:00 0°C° 0.1 mm 3 mps 631 mmHg 83%
    21:00 0°C° 0.1 mm 3 mps 632 mmHg 85%
    22:00 -1°C° 0.1 mm 3 mps 632 mmHg 86%
    23:00 -1°C° 0.1 mm 3 mps 632 mmHg 87%

    25 January, Thursday

    Time Temperature Precipitation Wind Pressure Humidity
    00:00 -1°C° 0.1 mm 3 mps 632 mmHg 88%
    01:00 -2°C° 0.1 mm 3 mps 633 mmHg 89%
    02:00 -2°C° 0.1 mm 3 mps 633 mmHg 90%
    03:00 -2°C° 0.1 mm 3 mps 633 mmHg 90%
    04:00 -2°C° 0.2 mm 3 mps 633 mmHg 91%
    05:00 -2°C° 0.2 mm 3 mps 634 mmHg 92%
    06:00 -4°C° 0.2 mm 3 mps 634 mmHg 92%
    07:00 -2°C° 0.3 mm 3 mps 634 mmHg 91%
    08:00 -3°C° 0.3 mm 4 mps 635 mmHg 90%
    09:00 -3°C° 0.3 mm 4 mps 635 mmHg 88%
    10:00 -3°C° 0.4 mm 4 mps 635 mmHg 87%
    11:00 -3°C° 0.4 mm 4 mps 635 mmHg 86%
    12:00 -3°C° 0.4 mm 4 mps 635 mmHg 85%
    13:00 -3°C° 0.6 mm 4 mps 635 mmHg 85%
    14:00 -3°C° 0.6 mm 4 mps 635 mmHg 85%
    15:00 -4°C° 0.6 mm 5 mps 635 mmHg 85%
    16:00 -5°C° 0.6 mm 5 mps 635 mmHg 86%
    17:00 -5°C° 0.6 mm 5 mps 635 mmHg 88%
    18:00 -6°C° 0.6 mm 5 mps 636 mmHg 89%
    19:00 -6°C° 0.8 mm 5 mps 636 mmHg 89%
    20:00 -6°C° 0.8 mm 5 mps 636 mmHg 90%
    21:00 -6°C° 0.8 mm 5 mps 636 mmHg 90%
    22:00 -5°C° 0.8 mm 4 mps 636 mmHg 90%
    23:00 -5°C° 0.8 mm 4 mps 636 mmHg 91%
    Show more